Location: Moena
(46.3667°N, 11.6500°E)
Time: 07:22:09
(UTC+00:00)

BREEZE-M DEB (TANK) - Pass Details

Date: 03 March 2021
Orbit: 308 x 15402 km, 49.5° (Epoch: 18 April)

Event Time Altitude Azimuth Distance (km) Brightness Sun altitude
Rises 19:33:52 0° 288° (WNW) 2,214 6.7 -26.5°
Reaches altitude 10° 19:35:13 10° 291° (WNW) 1,559 5.6 -26.8°
Enters shadow 19:37:34 58° 323° (NW) 743 3.1 -27.1°
